Regional Weather Roundup
Issued by NWS

Home | Current Version | Previous Version | Text Only | Print | Product List | Glossary Off
Versions: 1 2 3 4 5 6 7 8 9 10 11 12 13 14 15 16 17 18 19 20 21 22 23 24 25 26 27 28 29 30 31 32 33 34 35 36 37 38 39 40 41 42 43 44 45 46 47 48 49 50

000
ASUS45 KPSR 311710
RWRAZ

ARIZONA HOURLY REGIONAL WEATHER ROUNDUP
NATIONAL WEATHER SERVICE PHOENIX AZ
1000 AM MST FRI JUL 31 2015

NOTE: FAIR INDICATES FEW OR NO CLOUDS BELOW 12,000 FEET WITH NO
SIGNIFICANT WEATHER AND/OR OBSTRUCTIONS TO VISIBILITY.

AZZ001>003-036-311800-
NORTHWEST ARIZONA

CITY           SKY/WX    TMP DP  RH WIND       PRES   REMARKS
BULLHEAD CITY  SUNNY     91  63  38 SW6       29.97F
KINGMAN        SUNNY     91  53  27 VRB3      30.15F
$$

AZZ004>008-015-016-018-311800-
NORTH CENTRAL ARIZONA

CITY           SKY/WX    TMP DP  RH WIND       PRES   REMARKS
GRAND CANYON   MOSUNNY   80  52  37 SW9       30.40F
WILLIAMS       MOSUNNY   79  50  36 VRB7G14   30.47S
PRESCOTT       MOSUNNY   84  57  39 VRB7      30.28F
FLAGSTAFF      MOSUNNY   74  52  46 S8        30.44F
PAYSON         MOSUNNY   84  55  37 VRB7      30.31S HAZE
PAGE           MOSUNNY   87  54  32 NW7       30.24F
$$

AZZ009>014-017-311800-
NORTHEAST ARIZONA

CITY           SKY/WX    TMP DP  RH WIND       PRES   REMARKS
WINSLOW        SUNNY     81  58  45 CALM      30.29F
SAINT JOHNS    SUNNY     78  56  46 VRB3      30.34F
SHOW LOW       PTSUNNY   75  55  50 S12       30.41S
$$

AZZ023-311800-
GREATER PHOENIX AREA

CITY           SKY/WX    TMP DP  RH WIND       PRES   REMARKS
PHOENIX        MOSUNNY   99  59  26 E5        29.95F
GLENDALE       PTSUNNY   99  61  28 VRB5      29.97F
LUKE AFB       SUNNY    100  61  27 NE1       29.95F HX 101
DEER VALLEY    SUNNY     96  59  29 SW3       29.98F
SCOTTSDALE     SUNNY     98  59  27 VRB3      30.00F
CHANDLER       PTSUNNY   95  63  34 E5        29.98S
$$

AZZ027-028-311800-
SOUTHWEST MARICOPA COUNTY AND PINAL COUNTY

CITY           SKY/WX    TMP DP  RH WIND       PRES   REMARKS
CASA GRANDE    MOSUNNY   93  59  31 CALM      29.99S
GILA BEND      MOSUNNY   96  60  29 VRB3      29.94F
$$

AZZ503-504-507>509-311800-
SOUTHEAST ARIZONA

CITY           SKY/WX    TMP DP  RH WIND       PRES   REMARKS
TUCSON         MOSUNNY   93  60  33 E7        30.10F
DAVIS-MONTHAN  PTSUNNY   92  57  31 SE13      30.09F
RYAN FIELD     SUNNY     91  64  40 CALM      30.09F
NOGALES        PTSUNNY   83  62  49 W3        30.18F
SIERRA VISTA   MOSUNNY   80  60  51 VRB2      30.26F
DOUGLAS          N/A    N/A N/A N/A MISG      30.20F
SAFFORD        CLOUDY    86  58  38 E12       30.16F
$$

AZZ020-021-025-026-031-311800-
SOUTHWEST ARIZONA

CITY           SKY/WX    TMP DP  RH WIND       PRES   REMARKS
YUMA           PTSUNNY  100  62  28 CALM      29.91F HX 101
$$

CAZ031-033-041-043-047-048-061-311800-
SOUTHERN CALIFORNIA

CITY           SKY/WX    TMP DP  RH WIND       PRES   REMARKS
DOWNTOWN L.A.  CLOUDY    72  65  78 CALM      30.04S
L.A. AIRPORT   CLOUDY    70  66  87 W3        30.05S
SAN DIEGO      PTSUNNY   75  64  69 W7        30.04F
BURBANK        MOSUNNY   77  65  66 VRB3      30.04F
ONTARIO        MOSUNNY   80  64  58 W6        30.04F
RIVERSIDE      SUNNY     79  65  62 VRB5      30.04F
PALM SPRINGS   SUNNY     96  65  35 VRB3      29.95S
EL CENTRO NAS  PTSUNNY   99  59  26 W3        29.91F
IMPERIAL       SUNNY     99  62  29 CALM      29.89F HX 100
BLYTHE         SUNNY     95  63  34 CALM      29.94S
NEEDLES        SUNNY     92  64  39 W3        29.97F
$$

NVZ020-UTZ003-311800-
SOUTHERN NEVADA-UTAH

CITY           SKY/WX    TMP DP  RH WIND       PRES   REMARKS
LAS VEGAS      MOSUNNY   94  53  25 E6        30.01S
SALT LAKE CITY MOSUNNY   83  33  16 N7        30.24F
$$

NMZ009-TXZ055-311800-
NEW MEXICO-WEST TEXAS

CITY           SKY/WX    TMP DP  RH WIND       PRES   REMARKS
ALBUQUERQUE    PTSUNNY   75  60  59 S10       30.38S
EL PASO        MOSUNNY   84  63  49 N9        30.23F
$$


........................KEY........................
SKY/WX - SKY CONDITION/WEATHER
TMP    - TEMPERATURE IN FAHRENHEIT
DP     - DEW POINT IN FAHRENHEIT
RH     - RELATIVE HUMIDITY IN PERCENT
WIND   - DIRECTION AND SPEED IN MILES PER HOUR (MPH)
VRB    - VARIABLE WIND DIRECTION
PRES   - MEAN SEA LEVEL PRESSURE IN INCHES OF MERCURY
         F - FALLING PRESSURE   R - RISING PRESSURE
         S - STEADY PRESSURE
VSB    - VISIBILITY IN MILES
HX     - HEAT INDEX IN FAHRENHEIT
WCI    - WIND CHILL INDEX IN FAHRENHEIT
TC     - TEMPERATURE IN CELSIUS WHICH IS ALSO KNOWN AS
         TEMPERATURE IN CENTIGRADE
AFB    - AIR FORCE BASE
         LUKE AFB IS LUKE AIR FORCE BASE
         DAVIS-MONTHAN IS DAVIS-MONTHAN AIR FORCE BASE
NAS    - NAVAL AIR STATION
         EL CENTRO NAS IS EL CENTRO NAVAL AIR STATION
N/A    - NOT AVAILABLE



USA.gov is the U.S. government's official web portal to all federal, state and local government web resources and services.